Printer-friendly version

IAU Minor Planet Center

Minor Planet Center

MPEC 2007-Q32 : 2006 VT2

The following Minor Planet Electronic Circular may be linked-to from your own Web pages, but must not otherwise be redistributed electronically.


Read MPEC 2007-Q31 Read MPEC 2007-Q33


M.P.E.C. 2007-Q32                                Issued 2007 Aug. 28, 04:11 UT

     The Minor Planet Electronic Circulars contain information on unusual
         minor planets and routine data on comets.  They are published
   on behalf of Commission 20 of the International Astronomical Union by the
          Minor Planet Center, Smithsonian Astrophysical Observatory,
                          Cambridge, MA 02138, U.S.A.

             Prepared using the Tamkin Foundation Computer Network

                              MPC@CFA.HARVARD.EDU
          URL http://www.cfa.harvard.edu/iau/mpc.html  ISSN 1523-6714

                                   2006 VT2

                           Revision to MPEC 2006-V45

Additional Observations:
     K06V02T  C2007 08 26.36581403 50 01.85 -08 47 39.1          21.8 V EQ032H55
     K06V02T  C2007 08 26.37807103 50 01.84 -08 47 45.8          21.8 V EQ032H55
     K06V02T  C2007 08 26.39189103 50 01.84 -08 47 50.7          21.8 V EQ032H55
     K06V02T  C2007 08 27.37135703 50 01.23 -08 55 38.2          21.8 V EQ032H55
     K06V02T  C2007 08 27.38567903 50 01.21 -08 55 46.1          21.7 V EQ032H55

Observer details:
H55 Astronomical Research Observatory, Charleston.  Observer R. Holmes.
    Measurer H. Devore.  0.61-m f/4.0 astrograph + CCD.

First and last observations above in comparison with prediction:
Residuals in seconds of arc, reference and Delta-T
070826 H55  5.0-  6.4+    070827 H55  2.7-  7.8+    MPO116361   -0.00003 day

Orbital elements:
2006 VT2                                                 Earth MOID = 0.2484 AU
Epoch 2007 Oct. 27.0 TT = JDT 2454400.5                 MPC
M 154.68013              (2000.0)            P               Q
n   0.69464857     Peri.  152.55756     -0.78777436     +0.41626519
a   1.2626780      Node    59.51647     -0.61595920     -0.52948107
e   0.7232301      Incl.   31.79244     -0.00241393     -0.73917054
P   1.42           H   18.2           G   0.15           U   4
Residuals in seconds of arc
061111 691  0.1+  0.5-    061119 691  0.0   0.2+    061201 704  1.5+  1.1+
061111 691  0.0   0.2-    061119 691  0.3-  0.2+    061206 448  0.3+  0.3-
061111 691  0.2-  0.1-    061121 704  0.1-  1.4+    061206 448  0.6+  0.4-
061111 291  0.2-  0.1+    061121 704  1.3+  1.0+    061206 448  0.5+  0.1-
061111 291  0.0   0.1-    061121 704  0.4+  1.0+    061211 291  0.1-  0.1-
061111 291  0.1-  0.0     061121 704  0.0   0.2+    061211 291  0.4+  0.0
061111 F84  0.6-  0.7-    061121 704  0.7+  0.2+    061211 291  0.2-  0.3-
061111 F84  0.8+  0.4+    061121 448  0.3+  0.4-    061214 703  0.0   0.2+
061112 176  0.3-  0.1-    061121 448  0.0   0.2-    061214 703  0.0   0.1-
061112 176  0.3+  0.2-    061121 448  0.1+  0.1-    061214 703  0.3+  0.6-
061112 176  0.1+  0.2-    061122 691  0.1-  0.1+    061214 703  0.2+  0.2-
061112 176  0.1+  0.3-    061122 691  0.0   0.1+    061214 246  0.6-  0.3-
061112 176  0.0   0.1-    061122 691  0.1-  0.2+    061214 246  0.8+  0.0
061112 703  0.4-  0.4-    061122 H45  0.3+  0.0     061214 246  0.3-  0.2+
061112 703  0.2-  0.1+    061122 H45  0.1+  0.3-    061214 246  0.4+  0.1+
061112 703  0.5-  0.1-    061122 H45  0.1+  0.1-    061214 246  0.8+  0.2-
061112 H36 (1.3-  1.9+)   061122 H45  0.0   0.1-    061214 246  0.5+  0.5+
061112 703  0.5-  0.2+    061122 H45  0.0   0.2-    061215 240  0.3+  0.4+
061112 H36  0.3+  0.3-    061122 H45  0.2+  0.0     061215 240  0.8+  0.1+
061112 H36  0.2+  0.6-    061124 G96  0.1-  0.3-    061215 240  0.3+  0.1-
061112 H36  0.2-  0.5-    061124 G96  0.1+  0.3-    061223 246  0.1+  0.2+
061112 H36  0.2-  0.8+    061124 G96  0.2+  0.3-    061223 246  0.1-  0.8+
061112 854  0.5-  0.5+    061124 G96  0.1-  0.2-    061223 246  0.5+  0.7+
061112 854  0.1-  0.4+    061124 H45  0.0   0.0     061223 246  0.1-  0.4+
061112 854  1.1-  0.3-    061124 H45  0.5+  0.3+    061223 246  0.3-  0.8+
061112 G96  0.1-  0.2-    061124 H45  0.1+  0.1-    061225 703  0.8+  0.0
061112 G96  0.1+  0.3-    061124 H45  0.3+  0.0     061225 703  0.3-  0.3+
061112 G96  0.1-  0.2-    061124 H45  0.1+  0.2+    061225 703  0.3-  0.1+
061112 G96  0.3+  0.3-    061124 H45  0.0   0.2+    061225 703 (0.1+  2.9-)
061112 474  0.3+  0.4-    061124 H45  0.2+  0.0     061227 246  1.1-  0.6+
061112 474  0.7-  0.0     061125 H45  0.8-  0.4+    061227 246  0.2+  0.2+
061112 474  0.3+  0.8-    061125 H45  0.4+  0.1-    061227 246  0.7-  0.8+
061112 474  1.3-  0.7+    061125 H45  0.3-  0.1+    061227 246  1.0+  0.1+
061113 291  0.4-  0.1+    061125 H45  0.2+  0.1+    061227 246  1.2+  0.6+
061113 291  0.4-  0.2+    061125 H45  0.2+  0.0     061227 246  0.7-  0.1-
061113 291  0.6-  0.3+    061125 H45  0.7-  0.0     070107 H45  0.1+  0.0
061113 G96  0.1+  0.4-    061126 H45  0.6+  0.1+    070107 H45  0.2+  0.0
061113 G96  0.0   0.3-    061126 H45  0.4-  0.3-    070107 H45  0.0   0.1-
061113 G96  0.5+  0.4-    061126 H45  0.1+  0.0     070107 H45  0.2+  0.2-
061113 G96  0.3+  0.5-    061126 H45  0.3+  0.2-    070107 H45  0.3+  0.1-
061115 691  0.9+  0.2-    061126 H45  0.7+  0.1+    070107 H45  0.1-  0.2-
061115 691  0.6+  0.4-    061126 H45  0.6+  0.2-    070117 703  1.8-  0.4-
061115 691  0.5+  0.6-    061127 704  0.7-  1.0-    070117 703 (0.6-  3.4-)
061116 113  0.3-  0.4+    061127 704  0.1-  0.7-    070117 703  0.3-  0.8-
061116 113  0.5-  0.3+    061127 704  1.4-  0.5-    070117 703  1.2-  0.4-
061116 113  0.4-  0.7+    061127 704 (0.2+  1.6+)   070119 703  0.9+  1.5-
061116 113  0.5-  0.4+    061127 113  0.1-  0.4-    070119 703  0.3-  1.1+
061116 113  0.4-  0.2+    061127 113  0.0   0.4-    070119 703  0.4+  0.8+
061118 170  0.1-  0.3-    061127 113  0.5-  0.5-    070119 703  0.8-  1.2-
061118 170  0.2+  0.5-    061127 113  0.1-  0.3-    070204 448  0.3+  0.2-
061118 170  0.2+  0.7-    061127 113  0.1-  0.3-    070204 448  0.3+  0.0
061118 704  0.2-  1.0+    061201 291  0.0   0.6+    070204 448 (1.7-  0.1-)
061118 704  0.2-  0.1+    061201 291  0.3-  0.1+    070826 H55  0.8-  0.6-
061118 704  0.5-  0.1+    061201 291  0.4-  0.0     070826 H55  0.8-  1.5-
061118 704  0.5-  0.4+    061201 704  0.6+  1.1+    070826 H55  0.5-  0.2+
061118 704  0.2-  0.2+    061201 704  0.2+  0.7+    070827 H55  1.0+  1.7+
061119 691  0.3-  0.2+    061201 704  0.1+  0.4-    070827 H55  1.4+  0.7+

Ephemeris:
2006 VT2                 a,e,i = 1.26, 0.72, 32                  q = 0.3495
Date    TT    R. A. (2000) Decl.     Delta      r     Elong.  Phase     V
2007 08 28    03 49.99   -09 00.7    1.514    1.960    99.9    30.5    21.9
2007 09 07    03 47.44   -10 30.6    1.433    2.003   109.1    28.4    21.7
2007 09 17    03 40.42   -12 14.1    1.356    2.042   118.9    25.5    21.6
2007 09 27    03 28.41   -14 03.4    1.291    2.075   129.1    22.0    21.4
2007 10 07    03 11.37   -15 45.9    1.244    2.103   138.9    18.2    21.2
2007 10 17    02 50.07   -17 05.0    1.223    2.127   146.6    15.0    21.1
2007 10 27    02 26.46   -17 44.1    1.231    2.146   149.2    13.7    21.1
2007 11 06    02 03.17   -17 35.1    1.270    2.160   145.3    15.2    21.2
2007 11 16    01 42.69   -16 40.1    1.339    2.170   137.0    18.1    21.5
2007 11 26    01 26.59   -15 09.5    1.432    2.175   127.1    21.2    21.7
2007 12 06    01 15.35   -13 15.7    1.544    2.176   116.9    23.8    21.9

Gareth V. Williams           (C) Copyright 2007 MPC           M.P.E.C. 2007-Q32

Read MPEC 2007-Q31 Read MPEC 2007-Q33


Our Web policy. Index to the CBAT/MPC/ICQ pages.


Valid HTML 4.01!